Location: The Saddle
(36.8333°N, 80.3417°W)
Time: 07:29:54
(UTC-05:00)

A-11 Canister half - Pass Details

Date: 12 December 2023
Orbit: 1526 x 1682 km, 47.3° (Epoch: 27 February)

Event Time Altitude Azimuth Distance (km) Brightness Sun altitude
Rises 01:09:37 0° 299° (WNW) 4,906 - -71.9°
Reaches altitude 10° 01:13:04 10° 292° (WNW) 3,899 - -71.4°
Maximum altitude 01:21:55 38° 229° (SW) 2,290 - -70.0°
Drops below altitude 10° 01:30:31 10° 166° (SSE) 3,777 - -68.7°
Sets 01:33:50 0° 158° (SSE) 4,737 - -68.1°
